Location: Isles
(48.9125°N, 2.8272°E)
Time: 20:07:41
(UTC+00:00)

Cosmos 1655 Rocket - Pass Details

Date: 03 February 2023
Orbit: 970 x 1006 km, 83.0° (Epoch: 21 March)

Event Time Altitude Azimuth Distance (km) Brightness Sun altitude
Rises 17:24:45 0° 350° (N) 3,701 6.9 -6.3°
Reaches altitude 10° 17:27:17 10° 351° (N) 2,743 6.3 -6.7°
Maximum altitude 17:33:35 86° 80° (E) 984 4.0 -7.7°
Drops below altitude 10° 17:39:48 10° 171° (S) 2,708 6.4 -8.7°
Sets 17:42:18 0° 172° (S) 3,650 7.1 -9.1°
